Calgary Springbank, Alberta

1:21 AM MDT on October 01, 2016 (GMT -0600)
Springbank

Weather History for CYBW - October, 2010

Change the Weather History Date:

Thursday, October 7, 2010

  Actual Average Record
Temperature  
Mean Temperature 54 °F -  
Max Temperature 72 °F 51 °F 71 °F (2010)
Min Temperature 36 °F 28 °F 15 °F (2000)
Degree Days  
Heating Degree Days 11    
Growing Degree Days 4 (Base 50)    
Moisture  
Dew Point 38 °F    
Average Humidity 48    
Maximum Humidity 76    
Minimum Humidity 25    
Precipitation  
Precipitation 0.00 in - - ()
Sea Level Pressure  
Sea Level Pressure 29.85 in    
Wind  
Wind Speed 7 mph ()    
Max Wind Speed 13 mph    
Max Gust Speed 17 mph    
Visibility 17.1 miles    
Events      
Averages and records for this station are not official NWS values.
T = Trace of Precipitation, MM = Missing Value Source: Averaged Metar Reports

Daily Weather History Graph

Daily Weather History Graph

Search for Another Location

Airport or City:

Trip Planner

Search our weather history database for the weather conditions in past years. The results will help you decide how hot, cold, wet, or windy it might be!

Date:

Astronomy

Oct. 07, 2010 Rise Set
Actual Time 7:47 AM MDT 7:01 PM MDT
Civil Twilight 7:14 AM MDT 7:34 PM MDT
Nautical Twilight 6:36 AM MDT 8:12 PM MDT
Astronomical Twilight 5:57 AM MDT 8:51 PM MDT
Moon 7:51 AM MDT (10/7) 6:29 PM MDT (10/7)
Length of Visible Light 12h 19m
Length of Day
11h 13m
Waning Crescent, 0% of the Moon is Illuminated
Oct 7
Waning Crescent
Oct 7
New
Oct 14
First Quarter
Oct 22
Full
Oct 30
Last Quarter

Hourly Weather History & Observations

Time (MDT) Temp. Windchill Dew Point Humidity Pressure Visibility Wind Dir Wind Speed Gust Speed Precip Events Conditions
5:00 AM 37.4 °F 31.4 °F 30.2 °F 75% 29.90 in 15.0 mi NW 8.1 mph - N/A   Clear
6:00 AM 39 °F - 32 °F 69% 29.91 in 15 mi NW 11.5 mph - -   Clear
6:00 AM 39.2 °F 32.5 °F 32.0 °F 75% 29.91 in 15.0 mi NW 10.4 mph - N/A   Partly Cloudy
7:00 AM 41.0 °F 35.8 °F 33.8 °F 76% 29.91 in 20.0 mi NW 8.1 mph - N/A   Scattered Clouds
8:00 AM 41.0 °F 35.2 °F 33.8 °F 76% 29.91 in 30.0 mi NW 9.2 mph - N/A   Partly Cloudy
10:00 AM 53.6 °F - 39.2 °F 58% 29.94 in 30.0 mi NNW 8.1 mph - N/A   Partly Cloudy
11:00 AM 60.8 °F - 39.2 °F 45% 29.91 in 30.0 mi NNW 10.4 mph - N/A   Partly Cloudy
12:00 PM 66 °F - 38 °F 25% 29.85 in 28 mi NW 12.7 mph - -   Scattered Clouds
12:00 PM 66.2 °F - 39.2 °F 37% 29.85 in 30.0 mi NW 9.2 mph 17.3 mph N/A   Partly Cloudy
1:00 PM 69.8 °F - 39.2 °F 33% 29.83 in 30.0 mi NW 10.4 mph - N/A   Partly Cloudy
2:00 PM 69.8 °F - 39.2 °F 33% 29.83 in 30.0 mi NW 9.2 mph - N/A   Partly Cloudy
3:00 PM 71.6 °F - 39.2 °F 31% 29.79 in 30.0 mi North 5.8 mph - N/A   Partly Cloudy
4:00 PM 71.6 °F - 39.2 °F 31% 29.78 in 30.0 mi NNE 3.5 mph - N/A   Partly Cloudy
5:00 PM 69.8 °F - 41.0 °F 35% 29.77 in 30.0 mi ENE 8.1 mph - N/A   Scattered Clouds
6:00 PM 67 °F - 41 °F 28% 29.82 in 28 mi ENE 6.9 mph - -   Scattered Clouds
6:00 PM 68.0 °F - 41.0 °F 37% 29.82 in 30.0 mi ENE 6.9 mph - N/A   Scattered Clouds
7:00 PM 64.4 °F - 41.0 °F 42% 29.81 in 30.0 mi East 5.8 mph - N/A   Scattered Clouds
8:00 PM 57.2 °F - 39.2 °F 51% 29.82 in 20.0 mi WNW 4.6 mph - N/A   Scattered Clouds
9:00 PM 53.6 °F - 39.2 °F 58% 29.85 in 20.0 mi West 3.5 mph - N/A   Scattered Clouds
10:00 PM 57.2 °F - 39.2 °F 51% 29.86 in 15.0 mi West 8.1 mph - N/A   Partly Cloudy